STARLINK-35612, 66128

Orbit data source: Space-Track

STARLINK-35612, 66128 is a payload satellite owned by SpaceX/Seattle (US) in LEO that was launched on Wed, 22 Oct 2025 UTC via an FALCON 9 launch vehicle from the Air Force Western Test Range (AFWTR). Payload-class satellites include a variety of spacecraft equipped with specific instruments for various scientific and technological missions. These include communications satellites like Starlink; space stations such as the ISS; scientific satellites like the Hubble; Earth observation satellites from companies like Planet Labs, Umbra, and HawkEye 360; GPS; miniature CubeSats for education and research; and military/defense satellites.

Loading next visibility...
Identifier
66128, 2025-237Q
Orbit
LEO
Country
Flag of USUS
Related business
Manufacturer
SpaceX/Seattle
Mission
Operational Commercial Communications
Bus & Motor
STARLINK V2MO, Unknown motor
Mass
575 kg wet, ~530 kg dry
Launch date (UTC)
2025-10-22 (4 months ago)
Launch vehicle
FALCON 9
Launch site
Air Force Western Test Range (AFWTR)
Object type
Payload
Rocket body
Debris
Shape & HBR
Box + 2 Pan, 17.7 m
Radar Cross Section
36.964 m²

Expand to show TLE details & history
Last TLE update: 19 hours ago

TLE from 19 hours ago
0 STARLINK-35612
1 66128U 25237Q   26061.34700628  .00017436  00000-0  59961-3 0  9991
2 66128  53.1605  73.9248 0001338  86.9886 273.1268 15.30190221 21486
Epoch: 2026-03-02T08:19Z
TLE epoch observation values (Epoch: 2026-03-02T08:19:41.342Z)
Latitude
-0.00002°
Longitude
148.8608°
Altitude
476.094 km
Speed
7.629 km/s
True Right ascension
04h 55m 41s
True Declination
0° 00' 00"
Sunlit
Object was in daylight at epoch
Visualization orbit readout
Latitude
Unknown
Longitude
Unknown
Altitude
Unknown
Speed
Unknown
Apparent Right ascension
Unknown
Apparent Declination
Unknown
Sunlit
N/A
Visualization observer readout
Local Sidereal Time
07:14:35
Azimuth
Unknown
Elevation
Unknown
Doppler factor
Unknown
Orbital elements
Apogee altitude
476.418 km
Perigee altitude
474.584 km
Semi-major axis
6,853.638 km
Eccentricity
0.00013
Inclination
53.1605°
RAAN
73.9248°
Arg. of periapsis
86.9886°
True anomaly
273.11149°
Mean anomaly
273.1268°
Eccentric anomaly
273.11915°
Mean motion
3.82526 °/min
Orbital period
94.11 mins
BSTAR
0.00059961
Loading maneuver chart data...
Computing Atmospheric mass density...
Loading historical data...
Loading historical data...
Loading historical data...
Loading historical data...
Loading historical data...
Loading historical data...
Loading historical data...

Documentation

Showing up to 5 results
|